Regional Weather Roundup
Issued by NWS Portland, ME

Home | Current Version | Previous Version | Text Only | Print | Product List | Glossary On
Versions: 1 2 3 4 5 6 7 8 9 10 11 12 13 14 15 16 17 18 19 20 21 22 23 24 25 26 27 28 29 30 31 32 33 34 35 36 37 38 39 40 41 42 43 44 45 46 47 48 49 50
000
ASUS41 KGYX 130010
RWRGYX
WEATHER ROUNDUP FOR MAINE AND NEW HAMPSHIRE
NATIONAL WEATHER SERVICE GRAY ME
700 PM EST TUE DEC 12 2017

MEZ002-005-006-010-012-015-018-020-021-024-026-027-029-130100-
MAINE

CITY           SKY/WX    TMP DP  RH WIND       PRES   REMARKS
PORTLAND       FRZ RAIN  32  31  96 VRB5      29.34F FOG
6HR MIN TEMP:  23; 6HR MAX TEMP:  33; 6HR PCP:  0.57;

SANFORD        FLURRIES  27  26  96 N9        29.34F
BAR HARBOR     RAIN      33  32  96 N6        29.45F FOG
WISCASSET      RAIN      33  33 100 VRB7      29.37F FOG
6HR MIN TEMP:  23; 6HR MAX TEMP:  34; 6HR PCP:  0.50;

ROCKLAND       RAIN      38  37  97 NE12      29.39F FOG
FRYEBURG       MIX PCPN  26  25  96 N7        29.36F FOG
6HR MIN TEMP:  19; 6HR MAX TEMP:  25; 6HR PCP:  0.27;

AUGUSTA        FRZ RAIN  25  24  96 N10       29.39F FOG     WCI  15
6HR MIN TEMP:  18; 6HR MAX TEMP:  25; 6HR PCP:  0.06;

WATERVILLE     FLURRIES  22  21  96 NE10      29.38F WCI  11
BANGOR         FRZ RAIN  25  23  92 N13       29.47F WCI  14
6HR MIN TEMP:  19; 6HR MAX TEMP:  25; 6HR PCP:  0.06;

GREENVILLE       N/A     24  23  96 E15G22    29.39F WCI  11
6HR MIN TEMP:  16; 6HR MAX TEMP:  24; 6HR PCP:  0.09;

MILLINOCKET    LGT SNOW  19  17  92 NE5       29.56F VSB 1
6HR MIN TEMP:  13; 6HR MAX TEMP:  19; 6HR PCP:  0.10;

HOULTON        LGT SNOW  22  20  92 E12       29.59F FOG     WCI  10
6HR MIN TEMP:  17; 6HR MAX TEMP:  22; 6HR PCP:  0.18;

PRESQUE ISLE   LGT SNOW  19  18  93 NE7       29.63F FOG
6HR MIN TEMP:  10; 6HR MAX TEMP:  20; 6HR PCP:  0.12;

FRENCHVILLE    LGT SNOW  15  12  88 E8        29.63F FOG
6HR MIN TEMP:   9; 6HR MAX TEMP:  15; 6HR PCP:  0.06;

CARIBOU        LGT SNOW  24  20  84 E9        29.62F FOG
6HR MIN TEMP:  12; 6HR MAX TEMP:  23; 6HR PCP:  0.24;

$$

NHZ002-005-008-009-011-012-014-130100-
NEW HAMPSHIRE

CITY           SKY/WX    TMP DP  RH WIND       PRES   REMARKS
PORTSMOUTH     CLOUDY    32  31  96 CALM      29.30F FOG
ROCHESTER      CLOUDY    28  28 100 NW12      29.32F WCI  18
6HR MIN TEMP:  23; 6HR MAX TEMP:  29;

NASHUA         FRZ RAIN  32  31  96 NW6       29.34F FOG
MANCHESTER     FRZ RAIN  31  29  92 N9        29.33S FOG
6HR MIN TEMP:  30; 6HR MAX TEMP:  32; 6HR PCP:  0.10;

CONCORD        FRZ RAIN  29  26  89 NW9       29.36R FOG
6HR MIN TEMP:  27; 6HR MAX TEMP:  30; 6HR PCP:  0.36;

LACONIA        FLURRIES  27  25  92 VRB5      29.34F
PLYMOUTH       LGT SNOW  26  25  96 CALM      29.36F VSB 3/4
BERLIN         SNOW      23  22  96 CALM      29.34F VSB 1/2
6HR MIN TEMP:  20; 6HR MAX TEMP:  24; 6HR PCP:  0.25;

WHITEFIELD     SNOW      27  26  96 NE7       29.31F VSB 1/2
6HR MIN TEMP:  27; 6HR MAX TEMP:  33; 6HR PCP:  0.08;

JAFFREY        LGT SNOW  29  28  96 CALM      29.31F FOG
6HR MIN TEMP:  28; 6HR MAX TEMP:  29; 6HR PCP:  0.32;

KEENE          LGT SNOW  31  30  96 N5        29.35F FOG
LEBANON        LGT SNOW  29  27  92 CALM      29.35F FOG
6HR MIN TEMP:  28; 6HR MAX TEMP:  29; 6HR PCP:  0.27;

MT WASHINGTON  SNOW      18  18 100 SE43G55     N/A  VSB 0   WCI  -5
6HR MIN TEMP:  15; 6HR MAX TEMP:  20; 6HR PCP:  0.64;

$$

VTZ005-007-008-130100-
VERMONT

CITY           SKY/WX    TMP DP  RH WIND       PRES   REMARKS
ST JOHNSBURY     N/A     28  28 100 MISG      29.34F
MONTPELIER     LGT SNOW  27  27 100 CALM      29.37F FOG
BURLINGTON     LGT SNOW  32  31  96 CALM      29.37F VSB 1
$$

MAZ007-012-024-CTZ003-RIZ002-NYZ038-NYZ072-130100-
SOUTHERN NEW ENGLAND AND NY

CITY           SKY/WX    TMP DP  RH WIND       PRES   REMARKS
BOSTON         CLOUDY    44  41  89 W16G23    29.31S
WORCESTER      CLOUDY    34  31  88 W9        29.30F
NANTUCKET      PTCLDY    49  49 100 S7        29.32F
PROVIDENCE     CLOUDY    43  41  93 W9        29.33S
HARTFORD       CLOUDY    35  34  96 CALM      29.37S
ALBANY         CLOUDY    30  20  66 W20G28    29.46R WCI  17
NEW YORK CITY  MOCLDY    42  32  67 NW17G26   29.44S
$$

ANZ081-ANZ082-ANZ150-NHZ014-MEZ023>029-130100-
COASTAL MARINE OBSERVATIONS

STATION/POSITION TIME  TEMP    WIND        PRES    WAVE
                       AIR SEA DIR/SP/G            HT/PER
                 (UTC) (F)     (DEG/KT/KT) (MB)    (FT/S)
MOUNT DESERT ROC 0000   49      90/ 28/ 31  995.0F
MATINICUS ROCK   2300   48     110/ 26/ 30  995.4F
ISLE OF SHOALS   2300   47     110/ 23/ 24  991.9F
JEFFREYS LEDGE   2336      47                N/A     5/ 6
GEORGES BANK BUO 2250   54 52               998.7    6/ 6
$$

.............KEY..............
   WCI - WIND CHILL
   TC  - TEMPERATURE IN CELSIUS
   VSB - VISIBILITY IN MILES
   HX  - HEAT INDEX
   FAIR- INDICATES FEW OR NO CLOUDS BELOW 12,000 FT, WITH NO
         SIGNIFICANT WEATHER AND/OR OBSTRUCTIONS TO VISIBILITY.





USA.gov is the U.S. government's official web portal to all federal, state and local government web resources and services.